Regional Weather Roundup
Issued by NWS Kansas City/Pleasant Hill, MO

Home | Current Version | Previous Version | Graphics & Text | Print | Product List | Glossary Off
Versions: 1 2 3 4 5 6 7 8 9 10 11 12 13 14 15 16 17 18 19 20 21 22 23 24 25 26 27 28 29 30 31 32 33 34 35 36 37 38 39 40 41 42 43 44 45 46 47 48 49 50

000
ASUS43 KEAX 250904
RWREAX

WEATHER ROUNDUP FOR EASTERN KANSAS AND NORTHWEST MISSOURI
NATIONAL WEATHER SERVICE KANSAS CITY/PLEASANT HILL MO
400 AM CDT FRI JUL 25 2014

KSZ040-057-103>105-MOZ028-029-037-043-251000-
...KANSAS CITY METROPOLITAN AREA...

CITY           SKY/WX    TMP DP  RH WIND       PRES   REMARKS
K.C. INTL      MOCLDY    71  60  68 S13       29.88F
K.C. DOWNTOWN  MOCLDY    74  59  59 S12       29.88F
LEES SUMMIT    MOCLDY    72  58  61 S14       29.91F
OLATHE - IXD   PTCLDY    70  60  70 S9        29.91F
OLATHE - OJC   PTCLDY    70  60  70 S9        29.90F
LAWRENCE       MOCLDY    74  63  68 S6        29.88F

$$

MOZ001>008-011>017-020>025-030>033-038>040-044>046-053-054-251000-
...NORTHERN AND CENTRAL MISSOURI...

CITY           SKY/WX    TMP DP  RH WIND       PRES   REMARKS
ST. JOSEPH     MOCLDY    72  60  66 S9        29.87F
MOSBY          PTSUNNY   68  59  73 SE6       29.89F
WHITEMAN AFB   PTCLDY    66  49  53 S7        29.93F
CLINTON        MOCLDY    70  61  73 S10       29.94F
SEDALIA        MOCLDY    66  56  70 S9        29.94F
WARSAW         NOT AVBL
MARSHALL       CLOUDY    66  59  77 SE6       29.95S
CHILLICOTHE      N/A     68  56  65 SE7       29.93S
KIRKSVILLE     CLOUDY    64  55  72 S13       29.98R

$$

MOZ041-047>049-056>058-063>065-088>090-097-251000-
...EASTERN AND SOUTHERN MISSOURI...

CITY           SKY/WX    TMP DP  RH WIND       PRES   REMARKS
ST. LOUIS INTL MOCLDY    65  57  75 E7        30.02F
SPIRIT OF STL  CLEAR     59  55  87 CALM      30.00F
COLUMBIA       MOCLDY    63  55  75 SE9       29.99F
JEFFERSON CITY PTCLDY    65  55  70 E8        29.99S
HANNIBAL       CLOUDY    66  50  55 SE6       30.02R
ROLLA          CLEAR     64  54  69 S9        30.01S
LEBANON        CLEAR     64  57  77 S10       30.01F
OSAGE BEACH    PTCLDY    63  54  72 S7        29.99F
SPRINGFIELD    CLEAR     67  58  72 S12       30.01S
BRANSON        MOCLDY    66  61  82 S3        30.05R
NEVADA         MOCLDY    66  59  77 S9        29.96F
JOPLIN         MOCLDY    70  64  81 S8        29.98F
WEST PLAINS    CLEAR     63  56  78 CALM      30.06F

$$

IAZ060-094-KSZ022-034>040-054-083-096-NEZ052-066-093-251000-
...KANSAS...SOUTHEAST NEBRASKA AND IOWA...

CITY           SKY/WX    TMP DP  RH WIND       PRES   REMARKS
TOPEKA         CLOUDY    76  67  73 S5        29.87F
MANHATTAN      CLOUDY    80  70  71 SW15G24   29.85F
EMPORIA        CLOUDY    75  70  84 S15       29.90F
CHANUTE        PTCLDY    73  70  90 SE8       29.95S
WICHITA        PTCLDY    75  70  84 S12       29.93F
OMAHA          CLOUDY    79  63  57 S15G29    29.73F
LINCOLN        CLOUDY    74  68  81 S10       29.80F
FALLS CITY     CLOUDY    71  61  70 N9        29.88R
LAMONI         CLOUDY    66  58  75 SE7       29.93R
DES MOINES     CLOUDY    66  61  84 E12       29.93S

$$




USA.gov is the U.S. government's official web portal to all federal, state and local government web resources and services.